Location: Frankfurt+(oder)
(51.7984°N, 12.2168°E)
Time: 03:36:02
(UTC+02:00)

ISS - Visible Passes

Search period start: 21 September 2017 00:00
Search period end: 01 October 2017 00:00
Orbit: 402 x 407 km, 51.6° (Epoch: 21 September)

Date Brightness Start Highest point End Pass type
(mag) Time Alt. Az. Time Alt. Az. Time Alt. Az.
26 Sep -1.9 20:28:09 10° S 20:29:45 17° SSE 20:29:45 17° SSE visible
27 Sep -1.6 19:37:09 10° SSE 19:38:20 12° SE 19:39:32 10° ESE visible
27 Sep -2.0 21:11:02 10° SW 21:12:33 23° SW 21:12:33 23° SW visible
28 Sep -2.9 20:18:58 10° SW 20:21:53 30° SSE 20:22:31 28° SE visible
28 Sep -0.8 21:54:50 10° WSW 21:55:11 12° WSW 21:55:11 12° WSW visible
29 Sep -2.2 19:27:08 10° SSW 19:29:39 21° SE 19:32:11 10° E visible
29 Sep -3.1 21:02:29 10° WSW 21:05:01 47° SW 21:05:01 47° SW visible
30 Sep -3.5 20:10:11 10° SW 20:13:21 49° SSE 20:14:44 28° E visible
30 Sep -1.1 21:46:27 10° W 21:47:23 18° W 21:47:23 18° W visible
